Powrót do katalogu

THOR ABLESTAR DEB

AktywnyLEO
NORAD 264·DEBRIS·🇺🇸 United States

Wystrzelony Jun 29, 1961 z Cape Canaveral Space Force Station

Loading…

Następne Przeloty (najbliższe 24 godziny)

TLE

ŚwieżeSource: Space-Track

Epoka: Sep 14, 2026, 06:16 UTC

1 00264U 61015CL  26257.26142795  .00001306  00000-0  44627-3 0  9999
2 00264  66.5250 354.2289 0026155 309.1054  50.7721 14.39352145346475

Śledź THOR ABLESTAR DEB w czasie rzeczywistym z AllMySat

Download on the App Store